This demonstration page uses our WeatherBlox Daily Observations layout. Learn more.

Left ArrowRight Arrow

44.8408, -93.29828

Hourly Observations for May 20, 2016

Temp ( °F °C ) Dew Point ( °F °C ) Humidity (%) Winds ( mph kmh ) Pressure ( in mb ) Visibility ( mi km ) Precip ( " mm )
12:53 am 00:53 Mostly Clear 59 15 37 2.8 44 44 SSE 8 13 30.06 1018 10 16 0.00 0.00
1:53 am 01:53 Mostly Clear 58 14.4 38 3.3 48 48 SSE 9 15 30.06 1018 10 16 0.00 0.00
2:53 am 02:53 Mostly Clear 56 13.3 39 3.9 53 53 SSE 8 13 30.07 1018 10 16 0.00 0.00
3:53 am 03:53 Mostly Clear 58 14.4 38 3.3 48 48 SSE 8 13 30.08 1019 10 16 0.00 0.00
4:53 am 04:53 Mostly Clear 57 13.9 38 3.3 49 49 S 8 13 30.09 1019 10 16 0.00 0.00
5:53 am 05:53 Mostly Sunny 54 12.2 38 3.3 55 55 SSE 3 6 30.10 1019 10 16 0.00 0.00
6:53 am 06:53 Mostly Sunny 56 13.3 39 3.9 53 53 E 3 6 30.11 1020 10 16 0.00 0.00
7:53 am 07:53 Mostly Sunny 58 14.4 42 5.6 56 56 SE 3 6 30.12 1020 10 16 0.00 0.00
8:53 am 08:53 Mostly Cloudy 61 16.1 43 6.1 52 52 SE 3 6 30.14 1021 10 16 0.00 0.00
9:53 am 09:53 Mostly Cloudy 64 17.8 43 6.1 46 46 ESE 9 15 30.13 1020 10 16 0.00 0.00
10:53 am 10:53 Mostly Sunny 69 20.6 45 7.2 42 42 VRB 5 7 30.12 1020 10 16 0.00 0.00
11:53 am 11:53 Partly Cloudy 71 21.7 43 6.1 36 36 VRB 7 11 30.11 1020 10 16 0.00 0.00
12:53 pm 12:53 Mostly Cloudy 70 21.1 42 5.6 37 37 SSE 9 15 30.11 1020 10 16 0.00 0.00
1:53 pm 13:53 Mostly Cloudy 70 21.1 42 5.6 37 37 SE 7 11 30.10 1019 10 16 0.00 0.00
2:53 pm 14:53 Mostly Cloudy 72 22.2 40 4.4 31 31 S 5 7 30.10 1019 10 16 0.00 0.00
3:53 pm 15:53 Mostly Cloudy 74 23.3 43 6.1 33 33 E 6 9 30.09 1019 10 16 0.00 0.00
4:53 pm 16:53 Mostly Cloudy 75 23.9 41 5 29 29 SE 13 20 30.08 1019 10 16 0.00 0.00
5:53 pm 17:53 Mostly Cloudy 73 22.8 40 4.4 30 30 SE 9 15 30.08 1019 10 16 0.00 0.00
6:53 pm 18:53 Mostly Cloudy 72 22.2 39 3.9 30 30 SE 13 20 30.08 1019 10 16 0.00 0.00
7:53 pm 19:53 Mostly Cloudy 72 22.2 39 3.9 30 30 SE 8 13 30.09 1019 10 16 0.00 0.00
8:53 pm 20:53 Mostly Cloudy 68 20 39 3.9 35 35 SE 7 11 30.10 1019 10 16 0.00 0.00
9:53 pm 21:53 Mostly Cloudy 66 18.9 40 4.4 39 39 E 5 7 30.11 1020 10 16 0.00 0.00
10:53 pm 22:53 Mostly Cloudy 64 17.8 40 4.4 41 41 ENE 3 6 30.12 1020 10 16 0.00 0.00
11:53 pm 23:53 Mostly Cloudy 63 17.2 41 5 45 45 Calm 30.13 1020 10 16 0.00 0.00

Powered by AerisWeather